Roswell, NM

10:07 PM MDT on June 24, 2017 (GMT -0600)
Roswell Industrial

Weather History for KROW - March, 2013

Change the Weather History Date:

Friday, March 22, 2013

  Actual Average Record
Temperature  
Mean Temperature 55 °F 54 °F  
Max Temperature 66 °F 70 °F 87 °F (1907)
Min Temperature 44 °F 38 °F 18 °F (1955)
Degree Days  
Heating Degree Days 10 11  
Month to date heating degree days 219 299  
Since 1 July heating degree days 2673 3006  
Cooling Degree Days 0 0  
Month to date cooling degree days 2 0  
Year to date cooling degree days 2 0  
Growing Degree Days 6 (Base 50)    
Moisture  
Dew Point 29 °F    
Average Humidity 42    
Maximum Humidity 65    
Minimum Humidity 18    
Precipitation  
Precipitation 0.00 in 0.02 in 1.59 in (1919)
Month to date precipitation T 0.36  
Year to date precipitation 0.44 1.16  
Sea Level Pressure  
Sea Level Pressure 29.64 in    
Wind  
Wind Speed 8 mph (NNE)    
Max Wind Speed 17 mph    
Max Gust Speed 21 mph    
Visibility 9 miles    
Events      
T = Trace of Precipitation, MM = Missing Value Source: NWS Daily Summary

Daily Weather History Graph

Daily Weather History Graph

Search for Another Location

Airport or City:

Trip Planner

Search our weather history database for the weather conditions in past years. The results will help you decide how hot, cold, wet, or windy it might be!

Date:

Astronomy

Mar. 22, 2013 Rise Set
Actual Time 6:58 AM MDT 7:11 PM MDT
Civil Twilight 6:34 AM MDT 7:36 PM MDT
Nautical Twilight 6:05 AM MDT 8:05 PM MDT
Astronomical Twilight 5:35 AM MDT 8:34 PM MDT
Moon 2:52 PM MDT (3/22) 3:48 AM MDT (3/22)
Length of Visible Light 13h 02m
Length of Day
12h 12m
Waxing Gibbous, 78% of the Moon is Illuminated
Mar 22
Waxing Gibbous
Mar 27
Full
Apr 2
Last Quarter
Apr 10
New
Apr 18
First Quarter

Hourly Weather History & Observations

Time (MDT) Temp. Windchill Dew Point Humidity Pressure Visibility Wind Dir Wind Speed Gust Speed Precip Events Conditions
12:51 AM 57.0 °F - 15.1 °F 19% 29.54 in 10.0 mi NW 6.9 mph - N/A   Clear
1:51 AM 46.9 °F - 12.0 °F 24% 29.55 in 10.0 mi South 5.8 mph - N/A   Clear
2:51 AM 51.1 °F - 12.9 °F 22% 29.55 in 10.0 mi NNW 5.8 mph - N/A   Clear
3:51 AM 50.0 °F - 9.0 °F 19% 29.54 in 10.0 mi North 4.6 mph - N/A   Clear
4:51 AM 50.0 °F - 9.0 °F 19% 29.57 in 10.0 mi North 8.1 mph - N/A   Clear
5:51 AM 48.9 °F - 10.9 °F 22% 29.60 in 10.0 mi North 12.7 mph - N/A   Clear
6:51 AM 46.9 °F - 24.1 °F 41% 29.65 in 10.0 mi North 11.5 mph - N/A   Clear
7:51 AM 46.9 °F - 33.1 °F 59% 29.71 in 10.0 mi North 12.7 mph - N/A   Clear
8:51 AM 46.9 °F - 34.0 °F 61% 29.76 in 8.0 mi North 12.7 mph - N/A   Mostly Cloudy
9:51 AM 46.0 °F 39.9 °F 34.0 °F 63% 29.79 in 8.0 mi North 13.8 mph - N/A   Scattered Clouds
10:51 AM 46.9 °F - 35.1 °F 63% 29.79 in 7.0 mi North 10.4 mph - N/A   Mostly Cloudy
11:51 AM 50.0 °F - 37.0 °F 61% 29.78 in 7.0 mi NNE 8.1 mph - N/A   Partly Cloudy
12:51 PM 54.0 °F - 37.0 °F 53% 29.72 in 7.0 mi East 8.1 mph - N/A   Clear
1:51 PM 59.0 °F - 37.9 °F 46% 29.69 in 8.0 mi Variable 5.8 mph - N/A   Clear
2:51 PM 61.0 °F - 37.0 °F 41% 29.64 in 9.0 mi ESE 5.8 mph - N/A   Scattered Clouds
3:51 PM 63.0 °F - 36.0 °F 37% 29.59 in 9.0 mi Variable 3.5 mph - N/A   Clear
4:51 PM 64.9 °F - 35.1 °F 33% 29.56 in 10.0 mi ESE 6.9 mph - N/A   Clear
5:51 PM 66.0 °F - 35.1 °F 32% 29.56 in 10.0 mi ENE 4.6 mph - N/A   Clear
6:51 PM 63.0 °F - 35.1 °F 35% 29.58 in 9.0 mi North 6.9 mph - N/A   Clear
7:51 PM 59.0 °F - 36.0 °F 42% 29.60 in 10.0 mi North 5.8 mph - N/A   Clear
8:51 PM 55.9 °F - 35.1 °F 45% 29.60 in 10.0 mi NE 3.5 mph - N/A   Clear
9:51 PM 57.0 °F - 35.1 °F 44% 29.63 in 10.0 mi NNE 5.8 mph - N/A   Partly Cloudy
10:51 PM 55.0 °F - 36.0 °F 49% 29.65 in 10.0 mi East 6.9 mph - N/A   Clear